W7KKE-3 Weather Reports


Display with metric or nautical units.
time (UTC)temp
F
wind
direction
speed
MPH
gust
MPH
rain 1hr
in
rain 24hr
in
rain mn
in
humidity
%
barometer
mb
20260901051825 61 295 0.0 2.0 0.00 0.00 0.00 84 1007.4
20260901051326 62 0 0.0 0.0 0.00 0.00 0.00 84 1007.4
20260901050825 62 0 0.0 0.0 0.00 0.00 0.00 84 1007.4
20260901050325 62 0 0.0 0.0 0.00 0.00 0.00 84 1007.4
20260901045826 62 0 0.0 0.0 0.00 0.00 0.00 84 1007.3
20260901045325 62 0 0.0 0.0 0.00 0.00 0.00 84 1007.3
20260901044825 62 0 0.0 0.0 0.00 0.00 0.00 84 1007.3
20260901044326 62 0 0.0 0.0 0.00 0.00 0.00 84 1007.3
20260901043825 62 0 0.0 0.0 0.00 0.00 0.00 84 1007.4
20260901043325 62 0 0.0 0.0 0.00 0.00 0.00 84 1007.4
20260901042825 62 0 0.0 2.0 0.00 0.00 0.00 84 1007.4
20260901042325 62 247 0.0 2.0 0.00 0.00 0.00 84 1007.4
20260901041825 62 235 0.0 2.0 0.00 0.00 0.00 83 1007.4
20260901041326 62 0 0.0 4.0 0.00 0.00 0.00 83 1007.4
20260901040825 62 257 0.0 4.0 0.00 0.00 0.00 83 1007.4
20260901040325 62 271 0.0 4.0 0.00 0.00 0.00 83 1007.3
20260901035826 62 0 0.0 0.0 0.00 0.00 0.00 83 1007.3
20260901035325 62 0 0.0 0.0 0.00 0.00 0.00 83 1007.2
20260901034825 62 0 0.0 0.0 0.00 0.00 0.00 83 1007.1
20260901034326 62 0 0.0 3.0 0.00 0.00 0.00 83 1007.1
20260901033825 62 0 0.0 3.0 0.00 0.00 0.00 83 1007.1
20260901033325 62 256 0.0 3.0 0.00 0.00 0.00 83 1007.0
20260901032826 62 329 3.0 6.0 0.00 0.00 0.00 83 1006.9
20260901032325 62 313 0.0 6.0 0.00 0.00 0.00 83 1006.8
20260901031825 62 7 1.0 6.0 0.00 0.00 0.00 83 1006.8
20260901031326 62 347 3.0 3.0 0.00 0.00 0.00 83 1006.7
20260901030826 63 0 0.0 0.0 0.00 0.00 0.00 83 1006.7
20260901030325 62 336 0.0 4.0 0.00 0.00 0.00 83 1006.7
20260901025826 62 317 0.0 4.0 0.00 0.00 0.00 83 1006.8
20260901025325 62 315 1.0 4.0 0.00 0.00 0.00 83 1006.8
20260901024825 62 7 2.0 3.0 0.00 0.00 0.00 83 1006.8
20260901024326 62 324 1.0 4.0 0.00 0.00 0.00 83 1006.8
20260901023825 62 344 1.0 4.0 0.00 0.00 0.00 83 1006.7
20260901023325 62 317 1.0 4.0 0.00 0.00 0.00 83 1006.6
20260901022826 62 327 2.0 9.0 0.00 0.00 0.00 83 1006.7
20260901022325 62 341 4.0 9.0 0.00 0.00 0.00 83 1006.6
20260901021828 62 330 6.0 9.0 0.00 0.00 0.00 83 1006.7
20260901021326 62 320 6.0 12.0 0.00 0.00 0.00 83 1006.6
20260901020825 62 333 7.0 12.0 0.00 0.00 0.00 83 1006.5
20260901020325 62 330 6.0 12.0 0.00 0.00 0.00 83 1006.6
20260901015826 62 315 8.0 11.0 0.00 0.00 0.00 82 1006.5
20260901015326 62 323 7.0 11.0 0.00 0.00 0.00 82 1006.4
20260901014825 63 313 8.0 13.0 0.00 0.00 0.00 82 1006.4
20260901014326 63 312 9.0 13.0 0.00 0.00 0.00 82 1006.2
20260901013825 63 324 6.0 13.0 0.00 0.00 0.00 82 1006.2
20260901013325 63 331 9.0 14.0 0.00 0.00 0.00 81 1006.2
20260901012826 63 326 8.0 14.0 0.00 0.00 0.00 81 1006.3
20260901012325 64 336 9.0 14.0 0.00 0.00 0.00 81 1006.2
20260901011825 64 326 6.0 10.0 0.00 0.00 0.00 81 1006.2
20260901011326 64 330 7.0 10.0 0.00 0.00 0.00 81 1006.3
20260901010918 64 302 4.0 9.0 0.00 0.00 0.00 81 1006.4
20260901010825 64 302 4.0 9.0 0.00 0.00 0.00 81 1006.4
20260901010325 64 305 6.0 9.0 0.00 0.00 0.00 80 1006.4
20260901005826 64 308 5.0 9.0 0.00 0.00 0.00 80 1006.5
20260901005325 65 317 6.0 9.0 0.00 0.00 0.00 80 1006.5
20260901004825 65 281 5.0 9.0 0.00 0.00 0.00 80 1006.5
20260901004326 65 295 6.0 9.0 0.00 0.00 0.00 79 1006.5
20260901003825 65 287 6.0 9.0 0.00 0.00 0.00 79 1006.5
20260901003325 66 287 7.0 9.0 0.00 0.00 0.00 79 1006.5
20260901002826 66 291 6.0 11.0 0.00 0.00 0.00 79 1006.5
20260901002325 66 277 7.0 11.0 0.00 0.00 0.00 79 1006.5
20260901001825 66 292 6.0 11.0 0.00 0.00 0.00 78 1006.4
20260901001326 66 301 6.0 11.0 0.00 0.00 0.00 78 1006.5
20260901000825 66 285 8.0 11.0 0.00 0.00 0.00 78 1006.5
20260901000325 66 285 7.0 11.0 0.00 0.00 0.00 78 1006.5
20260831235826 66 289 8.0 10.0 0.00 0.00 0.00 78 1006.5
20260831234825 67 292 6.0 10.0 0.00 0.00 0.00 78 1006.5
20260831233825 66 306 8.0 11.0 0.00 0.00 0.00 79 1006.4
20260831233325 66 287 7.0 11.0 0.00 0.00 0.00 79 1006.5
20260831232826 66 292 8.0 12.0 0.00 0.00 0.00 79 1006.4
20260831232325 66 317 8.0 12.0 0.00 0.00 0.00 78 1006.5
20260831231825 66 301 8.0 12.0 0.00 0.00 0.00 78 1006.5
20260831231326 66 302 9.0 11.0 0.00 0.00 0.00 78 1006.5
20260831230826 66 298 9.0 11.0 0.00 0.00 0.00 78 1006.5
20260831230325 66 288 9.0 11.0 0.00 0.00 0.00 78 1006.5
20260831225826 66 282 9.0 11.0 0.00 0.00 0.00 77 1006.4
20260831225325 67 301 8.0 10.0 0.00 0.00 0.00 77 1006.4
20260831224825 67 284 6.0 10.0 0.00 0.00 0.00 77 1006.3
20260831224326 67 292 7.0 10.0 0.00 0.00 0.00 77 1006.4
20260831223825 68 287 6.0 9.0 0.00 0.00 0.00 76 1006.3
20260831223325 68 298 6.0 9.0 0.00 0.00 0.00 76 1006.3
20260831222826 68 287 7.0 11.0 0.00 0.00 0.00 76 1006.3
20260831222325 68 268 7.0 11.0 0.00 0.00 0.00 76 1006.3
20260831221825 68 288 7.0 11.0 0.00 0.00 0.00 76 1006.3
20260831221326 68 285 7.0 11.0 0.00 0.00 0.00 75 1006.3
20260831220825 69 289 9.0 12.0 0.00 0.00 0.00 75 1006.3
20260831220325 69 291 7.0 12.0 0.00 0.00 0.00 75 1006.2
20260831215826 69 280 7.0 12.0 0.00 0.00 0.00 75 1006.2
20260831215325 69 288 8.0 12.0 0.00 0.00 0.00 75 1006.2
20260831214825 69 275 7.0 12.0 0.00 0.00 0.00 75 1006.2
20260831214326 69 281 8.0 12.0 0.00 0.00 0.00 75 1006.2
20260831213825 69 284 7.0 12.0 0.00 0.00 0.00 75 1006.2
20260831213325 69 288 6.0 10.0 0.00 0.00 0.00 75 1006.2
20260831212826 69 282 7.0 12.0 0.00 0.00 0.00 76 1006.3
20260831212325 69 309 7.0 12.0 0.00 0.00 0.00 75 1006.3
20260831211825 69 273 6.0 12.0 0.00 0.00 0.00 75 1006.4
20260831211326 69 301 5.0 10.0 0.00 0.00 0.00 76 1006.4
20260831210825 69 280 7.0 10.0 0.00 0.00 0.00 75 1006.3
20260831210326 69 296 7.0 9.0 0.00 0.00 0.00 75 1006.4
20260831205826 69 285 6.0 9.0 0.00 0.00 0.00 74 1006.4
20260831205325 69 299 4.0 10.0 0.00 0.00 0.00 75 1006.3
20260831204825 69 291 7.0 10.0 0.00 0.00 0.00 75 1006.3
20260831204326 69 287 6.0 10.0 0.00 0.00 0.00 74 1006.4
20260831203825 69 308 8.0 10.0 0.00 0.00 0.00 73 1006.4
20260831203325 70 281 7.0 10.0 0.00 0.00 0.00 73 1006.4
20260831202826 69 306 7.0 11.0 0.00 0.00 0.00 74 1006.5
20260831202325 69 303 8.0 11.0 0.00 0.00 0.00 74 1006.5
20260831201825 69 291 7.0 11.0 0.00 0.00 0.00 74 1006.6
20260831201326 69 322 7.0 9.0 0.00 0.00 0.00 74 1006.6
20260831200825 69 294 6.0 9.0 0.00 0.00 0.00 75 1006.6
20260831200325 69 317 6.0 7.0 0.00 0.00 0.00 75 1006.6
20260831195826 69 284 5.0 9.0 0.00 0.00 0.00 74 1006.5
20260831195325 69 333 6.0 9.0 0.00 0.00 0.00 75 1006.5
20260831194825 69 343 6.0 9.0 0.00 0.00 0.00 74 1006.6
20260831194326 69 331 6.0 8.0 0.00 0.00 0.00 74 1006.5
20260831193825 69 298 5.0 9.0 0.00 0.00 0.00 75 1006.6
20260831193325 69 309 6.0 9.0 0.00 0.00 0.00 74 1006.6
20260831192826 69 315 6.0 9.0 0.00 0.00 0.00 74 1006.6
20260831192325 69 298 8.0 10.0 0.00 0.00 0.00 75 1006.7
20260831191825 69 313 6.0 10.0 0.00 0.00 0.00 74 1006.6
20260831191326 69 277 6.0 10.0 0.00 0.00 0.00 74 1006.7
20260831190825 68 288 6.0 9.0 0.00 0.00 0.00 74 1006.8
20260831190325 69 298 6.0 9.0 0.00 0.00 0.00 74 1006.8
20260831185826 68 301 4.0 7.0 0.00 0.00 0.00 75 1007.0
20260831185325 68 287 5.0 7.0 0.00 0.00 0.00 75 1007.0
20260831184825 68 282 4.0 7.0 0.00 0.00 0.00 76 1007.0
20260831183825 67 337 3.0 7.0 0.00 0.00 0.00 74 1007.0
20260831183325 67 324 4.0 7.0 0.00 0.00 0.00 76 1006.9
20260831182826 67 288 4.0 7.0 0.00 0.00 0.00 77 1007.0
20260831182325 67 292 3.0 8.0 0.00 0.00 0.00 77 1007.0
20260831181825 67 320 4.0 8.0 0.00 0.00 0.00 77 1007.0
20260831181326 67 284 3.0 8.0 0.00 0.00 0.00 77 1007.1
20260831180825 66 292 6.0 6.0 0.00 0.00 0.00 79 1007.1
20260831180325 66 289 4.0 6.0 0.00 0.00 0.00 79 1007.0
20260831175826 65 291 4.0 7.0 0.00 0.00 0.00 80 1007.0
20260831175325 65 274 2.0 7.0 0.00 0.00 0.00 81 1007.0
20260831174825 65 275 3.0 7.0 0.00 0.00 0.00 81 1007.0
20260831174326 64 282 4.0 6.0 0.00 0.00 0.00 82 1007.0
20260831173825 64 288 3.0 6.0 0.00 0.00 0.00 82 1007.1
20260831173325 63 280 3.0 6.0 0.00 0.00 0.00 83 1007.1
20260831172826 63 284 4.0 6.0 0.00 0.00 0.00 82 1007.1
20260831172325 63 303 2.0 6.0 0.00 0.00 0.00 83 1007.1
20260831171825 63 280 2.0 6.0 0.00 0.00 0.00 84 1007.1
20260831170825 62 320 3.0 5.0 0.00 0.00 0.00 85 1007.1
20260831170325 62 299 2.0 3.0 0.00 0.00 0.00 85 1007.1
20260831165826 62 298 2.0 4.0 0.00 0.00 0.00 86 1007.1
20260831165325 62 312 2.0 4.0 0.00 0.00 0.00 86 1007.1
20260831164825 61 301 3.0 4.0 0.00 0.00 0.00 86 1007.1
20260831163825 61 275 2.0 5.0 0.00 0.00 0.00 87 1007.2
20260831163325 61 296 2.0 5.0 0.00 0.00 0.00 87 1007.2
20260831162826 61 289 3.0 5.0 0.00 0.00 0.00 87 1007.3
20260831162325 61 319 1.0 4.0 0.00 0.00 0.00 87 1007.4
20260831161825 60 317 2.0 4.0 0.00 0.00 0.00 87 1007.4
20260831161326 60 0 3.0 3.0 0.00 0.00 0.00 88 1007.4
20260831160825 59 0 0.0 1.0 0.00 0.00 0.00 88 1007.4
20260831160325 58 285 0.0 1.0 0.00 0.00 0.00 88 1007.4
20260831155826 57 295 0.0 1.0 0.00 0.00 0.00 87 1007.4
20260831155325 57 0 0.0 0.0 0.00 0.00 0.00 87 1007.5
20260831154825 57 0 0.0 0.0 0.00 0.00 0.00 87 1007.5
20260831154326 56 0 0.0 0.0 0.00 0.00 0.00 87 1007.6
20260831153825 56 0 0.0 0.0 0.00 0.00 0.00 87 1007.7
20260831153326 56 0 0.0 0.0 0.00 0.00 0.00 87 1007.6
20260831152826 56 0 0.0 0.0 0.00 0.00 0.00 87 1007.6
20260831152325 56 0 0.0 0.0 0.00 0.00 0.00 87 1007.6
20260831151825 56 0 0.0 0.0 0.00 0.00 0.00 87 1007.7
20260831151326 55 0 0.0 0.0 0.00 0.00 0.00 87 1007.7
20260831150825 55 0 0.0 0.0 0.00 0.00 0.00 87 1007.7
20260831150325 55 0 0.0 0.0 0.00 0.00 0.00 86 1007.7
20260831145826 55 0 0.0 0.0 0.00 0.00 0.00 86 1007.7
20260831145325 55 0 0.0 0.0 0.00 0.00 0.00 86 1007.6
20260831144825 55 0 0.0 0.0 0.00 0.00 0.00 86 1007.6
20260831144326 54 0 0.0 0.0 0.00 0.00 0.00 86 1007.6
20260831143825 54 0 0.0 0.0 0.00 0.00 0.00 86 1007.6
20260831143325 54 0 0.0 3.0 0.00 0.00 0.00 86 1007.5
20260831142826 54 0 0.0 3.0 0.00 0.00 0.00 86 1007.4
20260831142326 54 95 0.0 3.0 0.00 0.00 0.00 86 1007.4
20260831141825 54 96 2.0 2.0 0.00 0.00 0.00 86 1007.4
20260831141326 54 105 1.0 5.0 0.00 0.00 0.00 86 1007.3
20260831140825 54 103 1.0 5.0 0.00 0.00 0.00 86 1007.3
20260831140325 54 106 4.0 5.0 0.00 0.00 0.00 86 1007.3
20260831135826 54 99 4.0 5.0 0.00 0.00 0.00 86 1007.2
20260831135325 54 100 4.0 5.0 0.00 0.00 0.00 86 1007.2
20260831134825 55 103 4.0 4.0 0.00 0.00 0.00 86 1007.2
20260831134326 55 109 3.0 4.0 0.00 0.00 0.00 86 1007.4
20260831133825 55 91 0.0 4.0 0.00 0.00 0.00 85 1007.4
20260831133325 55 89 0.0 4.0 0.00 0.00 0.00 85 1007.4
20260831132826 55 110 3.0 3.0 0.00 0.00 0.00 85 1007.4
20260831132325 55 117 1.0 3.0 0.00 0.00 0.00 85 1007.5
20260831131825 55 99 2.0 4.0 0.00 0.00 0.00 85 1007.5
20260831130825 55 103 1.0 4.0 0.00 0.00 0.00 85 1007.6
20260831130325 55 113 2.0 3.0 0.00 0.00 0.00 85 1007.6
20260831125827 55 92 2.0 3.0 0.00 0.00 0.00 85 1007.6
20260831125325 55 77 2.0 3.0 0.00 0.00 0.00 85 1007.6
20260831124825 55 91 0.0 3.0 0.00 0.00 0.00 85 1007.5
20260831123825 55 105 1.0 2.0 0.00 0.00 0.00 85 1007.5
20260831123326 55 0 0.0 0.0 0.00 0.00 0.00 85 1007.6
20260831122826 55 0 0.0 0.0 0.00 0.00 0.00 85 1007.7
20260831122325 55 0 0.0 3.0 0.00 0.00 0.00 85 1007.7
20260831121825 55 85 0.0 3.0 0.00 0.00 0.00 85 1007.8
20260831121326 55 107 1.0 3.0 0.00 0.00 0.00 85 1007.7
20260831120825 55 84 3.0 3.0 0.00 0.00 0.00 84 1007.8
20260831120325 56 93 3.0 3.0 0.00 0.00 0.00 84 1007.8
20260831115826 56 92 2.0 2.0 0.00 0.00 0.00 84 1007.9
20260831115325 56 103 1.0 5.0 0.00 0.00 0.00 84 1007.9
20260831114825 56 106 0.0 5.0 0.00 0.00 0.00 84 1007.9
20260831113825 56 91 4.0 4.0 0.00 0.00 0.00 84 1007.9
20260831113325 56 103 4.0 4.0 0.00 0.00 0.00 84 1007.9
20260831112826 56 100 2.0 4.0 0.00 0.00 0.00 84 1008.0
20260831112325 56 98 2.0 4.0 0.00 0.00 0.00 84 1008.0
20260831111825 56 106 2.0 3.0 0.00 0.00 0.00 84 1008.1
20260831110825 56 0 0.0 2.0 0.00 0.00 0.00 84 1008.1
20260831110325 56 91 0.0 2.0 0.00 0.00 0.00 84 1008.2
20260831105826 56 0 1.0 1.0 0.00 0.00 0.00 84 1008.2
20260831105325 56 0 0.0 2.0 0.00 0.00 0.00 83 1008.2
20260831104825 56 91 0.0 2.0 0.00 0.00 0.00 83 1008.2
20260831104326 56 102 1.0 2.0 0.00 0.00 0.00 83 1008.1
20260831103825 56 99 1.0 2.0 0.00 0.00 0.00 83 1008.1
20260831103325 56 88 1.0 1.0 0.00 0.00 0.00 83 1008.2
20260831102826 56 75 0.0 2.0 0.00 0.00 0.00 83 1008.2
20260831102326 57 86 1.0 2.0 0.00 0.00 0.00 83 1008.2
20260831101825 57 86 1.0 2.0 0.00 0.00 0.00 83 1008.2
20260831101326 57 0 0.0 0.0 0.00 0.00 0.00 83 1008.3
20260831100825 57 0 0.0 0.0 0.00 0.00 0.00 83 1008.4
20260831100325 56 0 0.0 0.0 0.00 0.00 0.00 83 1008.5
20260831095826 57 0 0.0 0.0 0.00 0.00 0.00 83 1008.5
20260831094825 57 102 2.0 4.0 0.00 0.00 0.00 83 1008.4
20260831094326 57 113 3.0 4.0 0.00 0.00 0.00 83 1008.5
20260831093825 57 106 3.0 4.0 0.00 0.00 0.00 83 1008.6
20260831093326 57 93 2.0 4.0 0.00 0.00 0.00 83 1008.6
20260831092826 57 89 2.0 4.0 0.00 0.00 0.00 82 1008.7
20260831092325 57 100 2.0 4.0 0.00 0.00 0.00 82 1008.7
20260831091825 57 102 3.0 3.0 0.00 0.00 0.00 82 1008.9
20260831091326 57 117 3.0 4.0 0.00 0.00 0.00 82 1008.9
20260831090825 57 106 3.0 4.0 0.00 0.00 0.00 82 1009.0
20260831090325 57 103 2.0 4.0 0.00 0.00 0.00 82 1009.0
20260831085826 57 91 3.0 3.0 0.00 0.00 0.00 82 1009.0
20260831085325 58 92 2.0 2.0 0.00 0.00 0.00 82 1009.1
20260831084825 58 107 2.0 2.0 0.00 0.00 0.00 82 1009.2
20260831084326 58 102 2.0 2.0 0.00 0.00 0.00 82 1009.3
20260831083825 58 0 0.0 0.0 0.00 0.00 0.00 82 1009.3
20260831083325 58 79 0.0 2.0 0.00 0.00 0.00 82 1009.4
20260831082826 58 105 0.0 2.0 0.00 0.00 0.00 81 1009.4
20260831082326 58 91 2.0 2.0 0.00 0.00 0.00 81 1009.3
20260831081825 58 89 2.0 3.0 0.00 0.00 0.00 81 1009.3
20260831081448 58 91 3.0 3.0 0.00 0.00 0.00 81 1009.4
20260831081326 58 91 3.0 3.0 0.00 0.00 0.00 81 1009.4
20260831080825 58 119 2.0 3.0 0.00 0.00 0.00 81 1009.5
20260831080327 58 0 0.0 0.0 0.00 0.00 0.00 81 1009.5
20260831075826 58 0 0.0 2.0 0.00 0.00 0.00 81 1009.7
20260831075326 58 86 0.0 2.0 0.00 0.00 0.00 81 1009.7
20260831074825 58 88 2.0 2.0 0.00 0.00 0.00 81 1009.7
20260831074326 58 107 1.0 4.0 0.00 0.00 0.00 81 1009.7
20260831073325 59 100 2.0 4.0 0.00 0.00 0.00 81 1009.7
20260831072826 59 103 2.0 3.0 0.00 0.00 0.00 81 1009.7
20260831072325 59 99 2.0 4.0 0.00 0.00 0.00 81 1009.8
20260831071825 59 103 2.0 4.0 0.00 0.00 0.00 81 1009.9
20260831071326 59 110 2.0 4.0 0.00 0.00 0.00 81 1009.9
20260831070825 59 105 3.0 4.0 0.00 0.00 0.00 81 1010.0
20260831070325 59 114 2.0 3.0 0.00 0.00 0.00 81 1010.1
20260831065826 58 0 1.0 1.0 0.00 0.00 0.00 80 1010.1
20260831065325 58 0 0.0 0.0 0.00 0.00 0.00 80 1010.2
20260831064825 59 0 0.0 1.0 0.00 0.00 0.00 80 1010.2
20260831064326 59 0 0.0 1.0 0.00 0.00 0.00 80 1010.2
20260831063825 58 33 0.0 1.0 0.00 0.00 0.00 80 1010.3
20260831063325 58 71 0.0 0.0 0.00 0.00 0.00 80 1010.3
20260831062826 58 89 0.0 3.0 0.00 0.00 0.00 80 1010.5
20260831062325 59 100 1.0 3.0 0.00 0.00 0.00 79 1010.4
20260831061825 59 88 1.0 3.0 0.00 0.00 0.00 79 1010.5
20260831061326 59 114 2.0 2.0 0.00 0.00 0.00 79 1010.6
20260831060825 59 0 0.0 0.0 0.00 0.00 0.00 79 1010.5
20260831060325 59 0 0.0 3.0 0.00 0.00 0.00 79 1010.6
20260831055826 59 0 0.0 3.0 0.00 0.00 0.00 79 1010.7
20260831055325 59 95 0.0 3.0 0.00 0.00 0.00 79 1010.8
20260831054825 59 98 2.0 2.0 0.00 0.00 0.00 79 1010.8
20260831054326 59 109 1.0 3.0 0.00 0.00 0.00 78 1010.7
20260831053825 59 82 2.0 3.0 0.00 0.00 0.00 78 1010.8
20260831053325 59 99 2.0 3.0 0.00 0.00 0.00 78 1010.9
20260831052826 60 93 3.0 3.0 0.00 0.00 0.00 78 1010.9
20260831052325 59 114 2.0 3.0 0.00 0.00 0.00 78 1011.0